星链-30933 (STARLINK-30933 )

导读

STARLINK-30933是美国SpaceX公司星链星座的成员卫星,于2023年11月22日发射入轨。星链项目旨在构建全球低轨卫星互联网星座,为地面基础设施匮乏区域提供高速低延迟宽带服务。该卫星运行于近地轨道,是星链持续扩展全球覆盖网络的一环,助力缩小数字鸿沟,同时也引发了关于太空交通与天文观测的相关讨论。

基本信息
目录编号:
58410
目录名称:
STARLINK-30933
国际标识:
2023-180J
轨道中心:
EARTH
卫星名称:
星链-30933
卫星全名:
星链-30933 (STARLINK-30933 )
卫星状态:
在轨 (已飞行1017 天)
发射日期:
2023-11-22 UTC
国别 :
美国 (US)
星等 :
--
轨道信息
数据来源 国际轨道数据
星历时间: 2026-09-03T23:08:58+0800
20小时前
查看轨道信息
半长轴: 6861.241km
偏心率: 0.0001113
轨道倾角: 43.003°
近地点辐角 284.783°
升交点赤经 341.830°
平近点角 75.289°
近地点: 482.34km
远地点: 483.868km
周期: 94.268分钟
每日圈数: 15.275618
详细信息
固有亮度:
5
最大亮度:
0.3
卫星平台:
Starlink v2.0 mini
覆盖范围:
全球
运营商:
太空探索技术公司
运营商所在国:
美国
制造商(研发单位):
太空探索技术公司
制造商所在国:
美国
使用方式:
暂无
卫星简介
星链(Starlink)计划是由太空探索技术公司(SpaceX)提出的一个巨型低轨卫星互联网星座项目,计划在2019年至2024年间在太空搭建由约1.2万颗卫星组成的“星链”网络,其中1584颗将部署在地球上空550千米处的近地轨道,并从2020年开始工作。该卫星仍在工作。
2D轨道图
3D轨道图
轨道高度分析图
轨道倾角分析图
轨道综合分析图
查看轨道综合分析图
交会数据列表
事件ID 空间交会对象 最接近时刻(TCA) 交会距离 交会风险概率(CRP) 交会风险指数(CRI) 操作
CDM_260905-221805-841006-196121
2026-09-05T
22:18:00+0000
0.507 km
远距离
1.333341E-4 高风险 0.77
CDM_260906-005505-841006-733121
2026-09-06T
00:55:02+0000
0.589 km
远距离
6.982716E-5 中风险 0.72
CDM_260906-131205-841006-196121
2026-09-06T
13:12:28+0000
0.904 km
远距离
2.396441E-5 中风险 0.63
CDM_260906-110705-841006-733121
2026-09-06T
11:07:02+0000
0.838 km
远距离
2.342822E-5 中风险 0.62
CDM_260905-153004-344105-841021
2026-09-05T
15:30:58+0000
1.089 km
极远距离
1.473668E-5 中风险 0.58
CDM_260905-235205-841006-196121
2026-09-05T
23:52:10+0000
1.322 km
极远距离
6.488845E-6 低风险 0.51
CDM_260906-093205-841006-733121
2026-09-06T
09:32:53+0000
1.277 km
极远距离
5.540518E-6 低风险 0.5
CDM_260905-232005-841006-733121
2026-09-05T
23:20:53+0000
1.519 km
极远距离
3.15633E-6 低风险 0.45
CDM_260903-134905-841006-469921
2026-09-03T
13:49:44+0000
1.955 km
极远距离
2.514176E-6 低风险 0.43
CDM_260906-144605-841006-196121
2026-09-06T
14:46:37+0000
1.843 km
极远距离
2.327995E-6 低风险 0.42